Fryeburg, ME

2:30 AM EDT on April 29, 2017 (GMT -0400)
Eastern Slopes Regional

Weather History for KIZG - February, 2011

Change the Weather History Date:

Wednesday, February 23, 2011

  Actual Average Record
Temperature  
Mean Temperature 16 °F -  
Max Temperature 39 °F 33 °F 64 °F (2017)
Min Temperature -6 °F 10 °F -17 °F (1999)
Degree Days  
Heating Degree Days 48    
Moisture  
Dew Point -5 °F    
Average Humidity 47    
Maximum Humidity 79    
Minimum Humidity 13    
Precipitation  
Precipitation 0.00 in - - ()
Sea Level Pressure  
Sea Level Pressure 30.22 in    
Wind  
Wind Speed 2 mph (NE)    
Max Wind Speed 7 mph    
Max Gust Speed -    
Visibility 10 miles    
Events      
Averages and records for this station are not official NWS values.
T = Trace of Precipitation, MM = Missing Value Source: NWS Daily Summary

Daily Weather History Graph

Daily Weather History Graph

Search for Another Location

Airport or City:

Trip Planner

Search our weather history database for the weather conditions in past years. The results will help you decide how hot, cold, wet, or windy it might be!

Date:

Astronomy

Feb. 23, 2011 Rise Set
Actual Time 6:31 AM EST 5:23 PM EST
Civil Twilight 6:01 AM EST 5:53 PM EST
Nautical Twilight 5:28 AM EST 6:26 PM EST
Astronomical Twilight 4:55 AM EST 7:00 PM EST
Moon No Moon Rise 8:59 AM EST (2/23)
Length of Visible Light 11h 51m
Length of Day
10h 52m
Waning Gibbous, 64% of the Moon is Illuminated
Feb 23
Waning Gibbous
Feb 24
Last Quarter
Mar 4
New
Mar 12
First Quarter
Mar 19
Full

Hourly Weather History & Observations

Time (EST) Temp. Windchill Dew Point Humidity Pressure Visibility Wind Dir Wind Speed Gust Speed Precip Events Conditions
12:54 AM 3.9 °F -3.4 °F -2.0 °F 76% 30.17 in 10.0 mi WSW 3.5 mph - N/A   Clear
1:54 AM 1.9 °F -5.6 °F -4.0 °F 76% 30.17 in 10.0 mi South 3.5 mph - N/A   Clear
2:54 AM 1.9 °F - -6.0 °F 69% 30.16 in 10.0 mi Calm Calm - N/A   Clear
3:54 AM -2.0 °F - -7.1 °F 79% 30.17 in 10.0 mi Calm Calm - N/A   Clear
4:54 AM -2.9 °F - -8.0 °F 79% 30.18 in 10.0 mi Calm Calm - N/A   Clear
5:54 AM -6.0 °F - -11.0 °F 79% 30.20 in 10.0 mi Calm Calm - N/A   Clear
6:54 AM -6.0 °F - -11.0 °F 79% 30.21 in 10.0 mi Calm Calm - N/A   Clear
7:54 AM 1.9 °F - -5.1 °F 72% 30.24 in 10.0 mi Calm Calm - N/A   Clear
8:54 AM 12.9 °F - -2.0 °F 51% 30.24 in 10.0 mi Calm Calm - N/A   Clear
9:54 AM 25.0 °F 20.7 °F -4.0 °F 28% 30.24 in 10.0 mi East 3.5 mph - N/A   Clear
10:54 AM 30.0 °F 26.5 °F -9.0 °F 18% 30.23 in 10.0 mi East 3.5 mph - N/A   Clear
11:54 AM 34.0 °F - -11.0 °F 14% 30.21 in 10.0 mi Calm Calm - N/A   Clear
12:54 PM 37.0 °F - -5.1 °F 17% 30.19 in 10.0 mi Calm Calm - N/A   Clear
1:54 PM 39.0 °F 35.7 °F -8.0 °F 13% 30.19 in 10.0 mi NE 4.6 mph - N/A   Clear
2:54 PM 37.0 °F 31.6 °F -4.0 °F 17% 30.20 in 10.0 mi NNE 6.9 mph - N/A   Clear
3:54 PM 36.0 °F 31.1 °F -4.0 °F 18% 30.21 in 10.0 mi North 5.8 mph - N/A   Clear
4:54 PM 33.1 °F 27.7 °F -4.0 °F 20% 30.22 in 10.0 mi NNW 5.8 mph - N/A   Clear
5:54 PM 24.1 °F - 1.0 °F 37% 30.25 in 10.0 mi Calm Calm - N/A   Clear
6:54 PM 19.9 °F - 3.0 °F 48% 30.27 in 10.0 mi Calm Calm - N/A   Clear
7:54 PM 17.1 °F - 1.9 °F 52% 30.27 in 10.0 mi Calm Calm - N/A   Clear
8:54 PM 23.0 °F - -5.1 °F 29% 30.27 in 10.0 mi Calm Calm - N/A   Clear
9:54 PM 12.9 °F - -0.0 °F 56% 30.27 in 10.0 mi Calm Calm - N/A   Clear
11:54 PM 9.0 °F - -0.9 °F 64% 30.27 in 10.0 mi Calm Calm - N/A   Clear